Powrót do katalogu

FENGYUN 1C DEB

AktywnySSO
NORAD 30309·DEBRIS·🇨🇳 China

Wystrzelony May 10, 1999 z Taiyuan Satellite Launch Center

Loading…

Następne Przeloty (najbliższe 24 godziny)

TLE

ŚwieżeSource: Space-Track

Epoka: Sep 13, 2026, 17:24 UTC

1 30309U 99025ZW  26256.72500579  .00000199  00000-0  17826-3 0  9992
2 30309  99.1917 317.7013 0093652 164.7881 195.6130 13.93699245998636

Śledź FENGYUN 1C DEB w czasie rzeczywistym z AllMySat

Download on the App Store